Location: Bamazo
(6.7448°N, 10.8189°W)
Time: 00:42:25
(UTC+00:00)

CZ-2D R/B - Pass Details

Date: 18 September 2020
Orbit: 520 x 539 km, 97.4° (Epoch: 21 October)

Event Time Altitude Azimuth Distance (km) Brightness Sun altitude
Rises 19:39:39 0° 175° (S) 2,675 6.7 -15.3°
Reaches altitude 10° 19:41:46 10° 178° (S) 1,787 5.9 -15.9°
Maximum altitude 19:45:36 62° 259° (W) 603 3.7 -16.8°
Drops below altitude 10° 19:49:25 10° 340° (NNW) 1,789 6.2 -17.8°
Sets 19:51:33 0° 344° (NNW) 2,679 7.1 -18.3°
